TimeCST,TemperatureF,Dew PointF,Humidity,Sea Level PressureIn,VisibilityMPH,Wind Direction,Wind SpeedMPH,Gust SpeedMPH,PrecipitationIn,Events,Conditions,WindDirDegrees,DateUTC
12:15 AM,11.1,6.8,83,29.97,10.0,West,10.4,-,N/A,,Clear,260,2013-02-12 06:15:00
12:35 AM,11.3,6.8,82,29.98,10.0,WSW,10.4,-,N/A,,Clear,250,2013-02-12 06:35:00
12:55 AM,9.7,5.7,84,29.98,10.0,West,8.1,-,N/A,,Clear,260,2013-02-12 06:55:00
1:15 AM,10.4,5.7,81,29.98,10.0,West,8.1,-,N/A,,Clear,260,2013-02-12 07:15:00
1:35 AM,9.3,4.8,82,29.98,10.0,West,4.6,-,N/A,,Clear,270,2013-02-12 07:35:00
1:55 AM,11.3,5.9,79,29.98,10.0,West,10.4,-,N/A,,Clear,260,2013-02-12 07:55:00
2:15 AM,10.6,4.6,77,29.97,10.0,West,8.1,-,N/A,,Clear,270,2013-02-12 08:15:00
2:35 AM,8.4,2.8,78,29.97,10.0,WNW,4.6,-,N/A,,Clear,300,2013-02-12 08:35:00
2:55 AM,10.6,2.8,71,29.97,10.0,West,10.4,-,N/A,,Clear,270,2013-02-12 08:55:00
3:15 AM,8.4,1.4,73,29.97,10.0,West,9.2,-,N/A,,Clear,260,2013-02-12 09:15:00
3:35 AM,8.2,1.2,73,29.96,10.0,West,10.4,-,N/A,,Clear,270,2013-02-12 09:35:00
3:55 AM,8.1,0.9,72,29.96,10.0,WNW,12.7,-,N/A,,Clear,290,2013-02-12 09:55:00
4:15 AM,5.9,-0.8,74,29.96,10.0,WNW,12.7,-,N/A,,Clear,290,2013-02-12 10:15:00
4:35 AM,9.3,0.5,67,29.96,10.0,West,15.0,-,N/A,,Clear,280,2013-02-12 10:35:00
4:55 AM,10.9,1.4,65,29.96,10.0,West,15.0,-,N/A,,Clear,270,2013-02-12 10:55:00
5:15 AM,12.2,1.9,64,29.96,10.0,West,13.8,-,N/A,,Clear,270,2013-02-12 11:15:00
5:35 AM,12.2,1.9,64,29.96,10.0,West,13.8,-,N/A,,Clear,270,2013-02-12 11:35:00
5:55 AM,12.0,1.8,64,29.96,10.0,West,12.7,-,N/A,,Clear,270,2013-02-12 11:55:00
6:15 AM,12.2,1.9,64,29.96,10.0,West,11.5,-,N/A,,Clear,270,2013-02-12 12:15:00
6:35 AM,12.2,2.1,64,29.96,10.0,West,12.7,-,N/A,,Clear,270,2013-02-12 12:35:00
6:55 AM,13.1,2.3,62,29.95,10.0,West,12.7,-,N/A,,Clear,270,2013-02-12 12:55:00
7:15 AM,12.2,2.3,65,29.95,10.0,West,15.0,-,N/A,,Clear,280,2013-02-12 13:15:00
7:35 AM,13.1,2.7,63,29.96,10.0,WNW,16.1,-,N/A,,Clear,290,2013-02-12 13:35:00
7:55 AM,12.9,2.3,63,29.96,10.0,WNW,17.3,-,N/A,,Clear,290,2013-02-12 13:55:00
8:15 AM,15.8,3.6,59,29.97,10.0,WNW,18.4,24.2,N/A,,Clear,290,2013-02-12 14:15:00
8:35 AM,17.2,4.3,57,29.98,10.0,West,15.0,-,N/A,,Clear,280,2013-02-12 14:35:00
8:55 AM,18.1,5.0,57,29.98,10.0,West,13.8,-,N/A,,Clear,280,2013-02-12 14:55:00
9:15 AM,21.6,7.7,55,29.98,10.0,WNW,16.1,20.7,N/A,,Clear,300,2013-02-12 15:15:00
9:35 AM,23.7,9.0,53,29.98,10.0,WNW,17.3,23.0,N/A,,Clear,300,2013-02-12 15:35:00
9:55 AM,25.9,9.1,49,29.98,10.0,WNW,23.0,28.8,N/A,,Clear,300,2013-02-12 15:55:00
10:15 AM,27.3,9.7,48,29.98,10.0,WNW,20.7,28.8,N/A,,Clear,300,2013-02-12 16:15:00
10:35 AM,28.6,10.6,47,29.98,10.0,NW,20.7,29.9,N/A,,Clear,310,2013-02-12 16:35:00
10:55 AM,29.5,10.0,44,29.98,10.0,WNW,24.2,29.9,N/A,,Clear,300,2013-02-12 16:55:00
11:15 AM,30.6,10.6,43,29.98,10.0,NW,21.9,27.6,N/A,,Clear,310,2013-02-12 17:15:00
11:35 AM,31.6,11.8,44,29.98,10.0,WNW,21.9,28.8,N/A,,Clear,300,2013-02-12 17:35:00
11:55 AM,32.4,11.3,42,29.98,10.0,WNW,23.0,29.9,N/A,,Clear,300,2013-02-12 17:55:00
12:15 PM,33.1,10.6,39,29.98,10.0,NW,21.9,25.3,N/A,,Clear,310,2013-02-12 18:15:00
12:35 PM,33.6,11.5,40,29.98,10.0,NW,20.7,27.6,N/A,,Clear,310,2013-02-12 18:35:00
12:55 PM,34.0,10.0,37,29.97,10.0,NW,21.9,28.8,N/A,,Clear,310,2013-02-12 18:55:00
1:15 PM,35.1,11.1,37,29.96,10.0,NW,19.6,26.5,N/A,,Clear,320,2013-02-12 19:15:00
1:35 PM,35.8,10.2,35,29.96,10.0,NW,19.6,29.9,N/A,,Clear,320,2013-02-12 19:35:00
1:55 PM,35.8,10.9,36,29.96,10.0,NW,23.0,29.9,N/A,,Clear,320,2013-02-12 19:55:00
2:15 PM,36.1,11.7,36,29.95,10.0,NNW,20.7,26.5,N/A,,Clear,330,2013-02-12 20:15:00
2:35 PM,36.5,9.9,33,29.96,10.0,NW,21.9,27.6,N/A,,Clear,320,2013-02-12 20:35:00
2:55 PM,36.5,10.6,34,29.96,10.0,NW,21.9,28.8,N/A,,Clear,320,2013-02-12 20:55:00
3:15 PM,36.3,10.2,34,29.96,10.0,NW,21.9,28.8,N/A,,Clear,320,2013-02-12 21:15:00
3:35 PM,36.5,10.6,34,29.96,10.0,NNW,23.0,28.8,N/A,,Clear,330,2013-02-12 21:35:00
3:55 PM,36.1,11.3,36,29.96,10.0,NW,23.0,28.8,N/A,,Clear,320,2013-02-12 21:55:00
4:15 PM,35.8,11.5,37,29.97,10.0,NW,24.2,29.9,N/A,,Clear,320,2013-02-12 22:15:00
4:35 PM,35.8,11.7,37,29.97,10.0,NW,20.7,26.5,N/A,,Clear,320,2013-02-12 22:35:00
4:55 PM,35.2,13.5,41,29.97,10.0,NW,18.4,-,N/A,,Clear,320,2013-02-12 22:55:00
5:15 PM,34.7,14.0,43,29.97,10.0,NW,18.4,24.2,N/A,,Clear,320,2013-02-12 23:15:00
5:35 PM,34.0,14.0,44,29.97,10.0,NW,18.4,24.2,N/A,,Clear,320,2013-02-12 23:35:00
5:55 PM,32.0,14.5,49,29.98,10.0,NW,12.7,21.9,N/A,,Clear,310,2013-02-12 23:55:00
6:15 PM,30.4,15.3,53,29.97,10.0,NW,11.5,-,N/A,,Clear,320,2013-02-13 00:15:00
6:35 PM,28.4,15.4,58,29.97,10.0,WNW,11.5,-,N/A,,Clear,300,2013-02-13 00:35:00
6:55 PM,27.5,15.3,60,29.97,10.0,WNW,13.8,-,N/A,,Clear,300,2013-02-13 00:55:00
7:15 PM,27.1,14.7,60,29.97,10.0,WNW,12.7,-,N/A,,Clear,300,2013-02-13 01:15:00
7:35 PM,27.1,14.4,59,29.98,10.0,NW,17.3,24.2,N/A,,Mostly Cloudy,310,2013-02-13 01:35:00
8:15 PM,26.2,13.8,59,29.98,10.0,NW,17.3,-,N/A,,Clear,310,2013-02-13 02:15:00
8:35 PM,26.4,13.3,58,29.98,10.0,NW,13.8,-,N/A,,Clear,310,2013-02-13 02:35:00
8:55 PM,25.9,13.3,59,29.98,10.0,NW,16.1,20.7,N/A,,Clear,310,2013-02-13 02:55:00
9:15 PM,25.3,13.5,61,29.98,10.0,NW,12.7,-,N/A,,Clear,310,2013-02-13 03:15:00
9:35 PM,25.9,13.6,60,29.98,10.0,NW,12.7,-,N/A,,Scattered Clouds,310,2013-02-13 03:35:00
9:55 PM,25.9,13.6,60,29.98,10.0,NW,12.7,-,N/A,,Scattered Clouds,320,2013-02-13 03:55:00
10:15 PM,24.6,13.5,63,29.98,10.0,WNW,9.2,-,N/A,,Scattered Clouds,300,2013-02-13 04:15:00
10:35 PM,25.7,14.4,62,29.98,10.0,WNW,18.4,-,N/A,,Clear,290,2013-02-13 04:35:00
10:55 PM,25.2,14.0,63,29.98,10.0,WNW,16.1,-,N/A,,Clear,290,2013-02-13 04:55:00
11:15 PM,24.3,14.0,65,29.98,10.0,WNW,13.8,-,N/A,,Clear,300,2013-02-13 05:15:00
11:35 PM,24.1,14.0,65,29.98,10.0,West,10.4,-,N/A,,Scattered Clouds,280,2013-02-13 05:35:00
11:55 PM,26.1,15.3,64,29.98,10.0,WNW,16.1,23.0,N/A,,Overcast,300,2013-02-13 05:55:00